| time (UTC) | temp C | wind direction | speed KPH | gust KPH | rain 1hr cm | rain 24hr cm | rain mn cm | humidity % | barometer mb |
| 20260507010659 | 17 | 52 | 1.6 | 3.2 | 0.00 | 0.00 | 0.00 | 87 | 1011.1 |
| 20260507010156 | 17 | 60 | 1.6 | 3.2 | 0.00 | 0.00 | 0.00 | 87 | 1010.6 |
| 20260507005654 | 17 | 100 | 1.6 | 3.2 | 0.00 | 0.00 | 0.00 | 87 | 1010.6 |
| 20260507005155 | 17 | 67 | 1.6 | 1.6 | 0.00 | 0.00 | 0.00 | 87 | 1010.6 |
| 20260507004652 | 17 | 68 | 1.6 | 3.2 | 0.00 | 0.00 | 0.00 | 86 | 1010.8 |
| 20260507004149 | 17 | 30 | 3.2 | 3.2 | 0.00 | 0.00 | 0.00 | 86 | 1010.9 |
| 20260507003646 | 17 | 1 | 4.8 | 9.7 | 0.00 | 0.00 | 0.00 | 86 | 1010.6 |
| 20260507003146 | 17 | 321 | 4.8 | 8.0 | 0.00 | 0.00 | 0.00 | 85 | 1010.8 |
| 20260507002642 | 18 | 348 | 4.8 | 8.0 | 0.00 | 0.00 | 0.00 | 85 | 1010.5 |
| 20260507002138 | 18 | 103 | 4.8 | 9.7 | 0.00 | 0.00 | 0.00 | 85 | 1010.5 |
| 20260507001635 | 17 | 33 | 4.8 | 4.8 | 0.00 | 0.00 | 0.00 | 85 | 1010.6 |
| 20260507001133 | 18 | 348 | 4.8 | 8.0 | 0.00 | 0.00 | 0.00 | 84 | 1010.4 |
| 20260507000629 | 18 | 105 | 8.0 | 9.7 | 0.00 | 0.00 | 0.00 | 84 | 1010.3 |
| 20260507000124 | 18 | 32 | 11.3 | 16.1 | 0.00 | 0.00 | 0.00 | 83 | 1010.3 |
| 20260506235622 | 18 | 26 | 3.2 | 4.8 | 0.00 | 0.00 | 0.00 | 83 | 1010.2 |
| 20260506235122 | 18 | 304 | 11.3 | 17.7 | 0.00 | 0.00 | 0.00 | 83 | 1010.3 |
| 20260506234620 | 19 | 321 | 8.0 | 14.5 | 0.00 | 0.00 | 0.00 | 82 | 1010.2 |
| 20260506234116 | 19 | 43 | 3.2 | 3.2 | 0.00 | 0.00 | 0.00 | 82 | 1010.1 |
| 20260506233613 | 19 | 15 | 4.8 | 8.0 | 0.00 | 0.00 | 0.00 | 81 | 1009.8 |
| 20260506233111 | 19 | 16 | 4.8 | 9.7 | 0.00 | 0.00 | 0.00 | 82 | 1009.8 |
| 20260506232606 | 20 | 356 | 6.4 | 9.7 | 0.00 | 0.00 | 0.00 | 80 | 1009.8 |
| 20260506232102 | 20 | 16 | 1.6 | 1.6 | 0.00 | 0.00 | 0.00 | 80 | 1010.0 |
| 20260506231559 | 20 | 354 | 8.0 | 14.5 | 0.00 | 0.00 | 0.00 | 79 | 1009.8 |
| 20260506231058 | 21 | 44 | 6.4 | 9.7 | 0.00 | 0.00 | 0.00 | 76 | 1009.7 |
| 20260506230554 | 21 | 16 | 4.8 | 4.8 | 0.00 | 0.00 | 0.00 | 75 | 1009.6 |
| 20260506230051 | 22 | 12 | 11.3 | 14.5 | 0.00 | 0.00 | 0.00 | 74 | 1009.4 |
| 20260506225548 | 21 | 26 | 4.8 | 4.8 | 0.00 | 0.00 | 0.00 | 76 | 1009.5 |
| 20260506225044 | 22 | 346 | 11.3 | 14.5 | 0.00 | 0.00 | 0.00 | 74 | 1009.5 |
| 20260506224541 | 22 | 336 | 6.4 | 9.7 | 0.00 | 0.00 | 0.00 | 74 | 1009.5 |
| 20260506224038 | 22 | 323 | 6.4 | 8.0 | 0.00 | 0.00 | 0.00 | 73 | 1009.4 |
| 20260506223533 | 22 | 26 | 8.0 | 12.9 | 0.00 | 0.00 | 0.00 | 74 | 1009.5 |
| 20260506223030 | 23 | 101 | 3.2 | 4.8 | 0.00 | 0.00 | 0.00 | 74 | 1009.2 |
| 20260506222527 | 23 | 1 | 8.0 | 11.3 | 0.00 | 0.00 | 0.00 | 74 | 1009.1 |
| 20260506222024 | 23 | 9 | 11.3 | 17.7 | 0.00 | 0.00 | 0.00 | 73 | 1009.1 |
| 20260506221521 | 23 | 107 | 4.8 | 9.7 | 0.00 | 0.00 | 0.00 | 74 | 1009.0 |
| 20260506221019 | 25 | 311 | 12.9 | 16.1 | 0.00 | 0.00 | 0.00 | 70 | 1008.9 |
| 20260506220514 | 25 | 145 | 1.6 | 3.2 | 0.00 | 0.00 | 0.00 | 71 | 1009.0 |
| 20260506220010 | 25 | 24 | 8.0 | 11.3 | 0.00 | 0.00 | 0.00 | 71 | 1009.0 |
| 20260506215507 | 24 | 15 | 3.2 | 3.2 | 0.00 | 0.00 | 0.00 | 72 | 1008.9 |
| 20260506215003 | 23 | 37 | 6.4 | 9.7 | 0.00 | 0.00 | 0.00 | 75 | 1009.1 |
| 20260506214500 | 25 | 330 | 6.4 | 11.3 | 0.00 | 0.00 | 0.00 | 72 | 1009.1 |
| 20260506213957 | 26 | 353 | 4.8 | 8.0 | 0.00 | 0.00 | 0.00 | 71 | 1009.0 |
| 20260506213455 | 26 | 43 | 6.4 | 11.3 | 0.00 | 0.00 | 0.00 | 70 | 1009.2 |
| 20260506212952 | 25 | 26 | 9.7 | 11.3 | 0.00 | 0.00 | 0.00 | 73 | 1008.9 |
| 20260506212448 | 25 | 301 | 9.7 | 12.9 | 0.00 | 0.00 | 0.00 | 72 | 1008.6 |
| 20260506211943 | 26 | 311 | 8.0 | 12.9 | 0.00 | 0.00 | 0.00 | 70 | 1008.9 |
| 20260506211439 | 27 | 130 | 4.8 | 8.0 | 0.00 | 0.00 | 0.00 | 69 | 1008.8 |
| 20260506210937 | 27 | 133 | 4.8 | 11.3 | 0.00 | 0.00 | 0.00 | 70 | 1009.1 |
| 20260506210433 | 27 | 132 | 1.6 | 3.2 | 0.00 | 0.00 | 0.00 | 71 | 1008.9 |
| 20260506205930 | 26 | 141 | 3.2 | 3.2 | 0.00 | 0.00 | 0.00 | 74 | 1008.8 |
| 20260506205426 | 25 | 228 | 4.8 | 4.8 | 0.00 | 0.00 | 0.00 | 78 | 1008.9 |
| 20260506204923 | 24 | 137 | 3.2 | 4.8 | 0.00 | 0.00 | 0.00 | 80 | 1009.0 |
| 20260506204421 | 23 | 138 | 3.2 | 3.2 | 0.00 | 0.00 | 0.00 | 82 | 1009.0 |
| 20260506203918 | 23 | 139 | 1.6 | 1.6 | 0.00 | 0.00 | 0.00 | 84 | 1009.2 |
| 20260506203415 | 23 | 137 | 4.8 | 4.8 | 0.00 | 0.00 | 0.00 | 85 | 1009.3 |
| 20260506202912 | 23 | 138 | 3.2 | 3.2 | 0.00 | 0.00 | 0.00 | 86 | 1009.3 |
| 20260506202409 | 23 | 142 | 3.2 | 4.8 | 0.00 | 0.00 | 0.00 | 86 | 1009.4 |
| 20260506201905 | 23 | 141 | 3.2 | 3.2 | 0.00 | 0.00 | 0.00 | 85 | 1009.2 |
| 20260506201403 | 26 | 145 | 4.8 | 8.0 | 0.00 | 0.00 | 0.00 | 80 | 1009.0 |
| 20260506200859 | 27 | 143 | 1.6 | 1.6 | 0.00 | 0.00 | 0.00 | 79 | 1009.1 |
| 20260506200355 | 27 | 143 | 0.0 | 1.6 | 0.00 | 0.00 | 0.00 | 80 | 1008.9 |
| 20260506195852 | 27 | 143 | 0.0 | 0.0 | 0.00 | 0.00 | 0.00 | 78 | 1009.0 |
| 20260506195349 | 27 | 143 | 1.6 | 1.6 | 0.00 | 0.00 | 0.00 | 78 | 1008.9 |
| 20260506194846 | 28 | 143 | 1.6 | 3.2 | 0.00 | 0.00 | 0.00 | 77 | 1008.8 |
| 20260506194343 | 28 | 143 | 0.0 | 0.0 | 0.00 | 0.00 | 0.00 | 75 | 1008.9 |
| 20260506193840 | 28 | 142 | 1.6 | 1.6 | 0.00 | 0.00 | 0.00 | 75 | 1008.7 |
| 20260506193337 | 28 | 143 | 1.6 | 1.6 | 0.00 | 0.00 | 0.00 | 75 | 1008.7 |
| 20260506192833 | 28 | 142 | 1.6 | 1.6 | 0.00 | 0.00 | 0.00 | 74 | 1008.7 |
| 20260506192330 | 28 | 143 | 1.6 | 1.6 | 0.00 | 0.00 | 0.00 | 75 | 1008.8 |
| 20260506191827 | 30 | 141 | 3.2 | 8.0 | 0.00 | 0.00 | 0.00 | 73 | 1008.8 |
| 20260506191323 | 30 | 143 | 1.6 | 1.6 | 0.00 | 0.00 | 0.00 | 71 | 1009.0 |
| 20260506190820 | 30 | 145 | 1.6 | 1.6 | 0.00 | 0.00 | 0.00 | 72 | 1009.0 |
| 20260506190317 | 30 | 144 | 3.2 | 4.8 | 0.00 | 0.00 | 0.00 | 70 | 1009.1 |
| 20260506185814 | 28 | 144 | 4.8 | 8.0 | 0.00 | 0.00 | 0.00 | 75 | 1009.0 |
| 20260506185311 | 28 | 143 | 0.0 | 1.6 | 0.00 | 0.00 | 0.00 | 76 | 1009.1 |
| 20260506184808 | 28 | 143 | 3.2 | 4.8 | 0.00 | 0.00 | 0.00 | 76 | 1009.3 |
| 20260506184305 | 28 | 152 | 3.2 | 3.2 | 0.00 | 0.00 | 0.00 | 74 | 1009.2 |
| 20260506183802 | 28 | 178 | 1.6 | 1.6 | 0.00 | 0.00 | 0.00 | 77 | 1009.3 |
| 20260506183257 | 28 | 149 | 6.4 | 8.0 | 0.00 | 0.00 | 0.00 | 76 | 1009.6 |
| 20260506182754 | 28 | 143 | 1.6 | 3.2 | 0.00 | 0.00 | 0.00 | 77 | 1009.5 |
| 20260506182251 | 28 | 143 | 0.0 | 0.0 | 0.00 | 0.00 | 0.00 | 76 | 1009.3 |
| 20260506181749 | 28 | 143 | 3.2 | 3.2 | 0.00 | 0.00 | 0.00 | 77 | 1009.5 |
| 20260506181247 | 28 | 152 | 4.8 | 8.0 | 0.00 | 0.00 | 0.00 | 76 | 1009.5 |
| 20260506180744 | 28 | 142 | 3.2 | 4.8 | 0.00 | 0.00 | 0.00 | 73 | 1009.5 |
| 20260506180239 | 28 | 159 | 3.2 | 4.8 | 0.00 | 0.00 | 0.00 | 76 | 1009.3 |
| 20260506175736 | 28 | 158 | 3.2 | 3.2 | 0.00 | 0.00 | 0.00 | 77 | 1009.2 |
| 20260506175233 | 26 | 144 | 3.2 | 3.2 | 0.00 | 0.00 | 0.00 | 81 | 1009.5 |
| 20260506174731 | 25 | 143 | 0.0 | 1.6 | 0.00 | 0.00 | 0.00 | 83 | 1009.5 |
| 20260506174227 | 25 | 143 | 1.6 | 3.2 | 0.00 | 0.00 | 0.00 | 83 | 1009.7 |
| 20260506173725 | 24 | 143 | 1.6 | 1.6 | 0.00 | 0.00 | 0.00 | 85 | 1009.8 |
| 20260506173222 | 24 | 142 | 0.0 | 1.6 | 0.00 | 0.00 | 0.00 | 86 | 1009.8 |
| 20260506172719 | 23 | 142 | 0.0 | 1.6 | 0.00 | 0.00 | 0.00 | 86 | 1010.2 |
| 20260506172215 | 23 | 142 | 3.2 | 4.8 | 0.00 | 0.00 | 0.00 | 86 | 1010.4 |
| 20260506171713 | 23 | 142 | 0.0 | 1.6 | 0.00 | 0.00 | 0.00 | 87 | 1010.3 |
| 20260506171210 | 24 | 140 | 3.2 | 3.2 | 0.00 | 0.00 | 0.00 | 86 | 1010.2 |
| 20260506170707 | 25 | 151 | 0.0 | 1.6 | 0.00 | 0.00 | 0.00 | 90 | 1010.1 |
| 20260506170204 | 25 | 151 | 3.2 | 4.8 | 0.00 | 0.00 | 0.00 | 91 | 1010.0 |
| 20260506165702 | 25 | 151 | 1.6 | 3.2 | 0.00 | 0.00 | 0.00 | 92 | 1010.0 |
| 20260506165159 | 25 | 150 | 1.6 | 1.6 | 0.00 | 0.00 | 0.00 | 93 | 1010.3 |
| 20260506164656 | 24 | 151 | 0.0 | 1.6 | 0.00 | 0.00 | 0.00 | 94 | 1010.2 |
| 20260506164153 | 25 | 151 | 3.2 | 3.2 | 0.00 | 0.00 | 0.00 | 93 | 1010.2 |
| 20260506163649 | 25 | 166 | 3.2 | 3.2 | 0.00 | 0.00 | 0.00 | 92 | 1010.2 |
| 20260506163145 | 25 | 149 | 1.6 | 1.6 | 0.00 | 0.00 | 0.00 | 91 | 1010.2 |
| 20260506162641 | 25 | 149 | 1.6 | 3.2 | 0.00 | 0.00 | 0.00 | 91 | 1010.2 |
| 20260506162139 | 25 | 149 | 0.0 | 1.6 | 0.00 | 0.00 | 0.00 | 91 | 1010.3 |
| 20260506161636 | 25 | 150 | 1.6 | 3.2 | 0.00 | 0.00 | 0.00 | 91 | 1010.4 |
| 20260506161132 | 25 | 149 | 1.6 | 1.6 | 0.00 | 0.00 | 0.00 | 91 | 1010.2 |
| 20260506160630 | 25 | 150 | 1.6 | 1.6 | 0.00 | 0.00 | 0.00 | 92 | 1010.3 |
| 20260506160127 | 25 | 151 | 0.0 | 1.6 | 0.00 | 0.00 | 0.00 | 92 | 1010.2 |
| 20260506155626 | 25 | 150 | 1.6 | 1.6 | 0.00 | 0.00 | 0.00 | 93 | 1010.0 |
| 20260506155122 | 24 | 151 | 0.0 | 0.0 | 0.00 | 0.00 | 0.00 | 94 | 1009.7 |
| 20260506153224 | 24 | 151 | 0.0 | 0.0 | 0.00 | 0.00 | 0.00 | 95 | 1009.5 |
| 20260506152721 | 23 | 151 | 0.0 | 0.0 | 0.00 | 0.00 | 0.00 | 95 | 1009.7 |
| 20260506152219 | 23 | 151 | 0.0 | 0.0 | 0.00 | 0.00 | 0.00 | 95 | 1009.5 |
| 20260506151718 | 23 | 151 | 0.0 | 0.0 | 0.00 | 0.00 | 0.00 | 96 | 1009.2 |
| 20260506151214 | 23 | 151 | 0.0 | 1.6 | 0.00 | 0.00 | 0.00 | 96 | 1009.1 |
| 20260506150710 | 23 | 151 | 0.0 | 0.0 | 0.00 | 0.00 | 0.00 | 96 | 1009.1 |
| 20260506150207 | 23 | 150 | 0.0 | 0.0 | 0.00 | 0.00 | 0.00 | 96 | 1009.3 |
| 20260506145704 | 23 | 150 | 0.0 | 0.0 | 0.00 | 0.00 | 0.00 | 96 | 1009.2 |
| 20260506145201 | 23 | 150 | 0.0 | 0.0 | 0.00 | 0.00 | 0.00 | 96 | 1009.1 |
| 20260506144659 | 23 | 150 | 0.0 | 1.6 | 0.00 | 0.00 | 0.00 | 96 | 1009.1 |
| 20260506144155 | 23 | 151 | 0.0 | 0.0 | 0.00 | 0.00 | 0.00 | 95 | 1009.0 |
| 20260506143653 | 23 | 151 | 0.0 | 0.0 | 0.00 | 0.00 | 0.00 | 95 | 1009.2 |
| 20260506143150 | 23 | 151 | 0.0 | 0.0 | 0.00 | 0.00 | 0.00 | 95 | 1009.0 |
| 20260506142649 | 23 | 151 | 0.0 | 0.0 | 0.00 | 0.00 | 0.00 | 95 | 1009.2 |
| 20260506142146 | 23 | 151 | 0.0 | 0.0 | 0.00 | 0.00 | 0.00 | 96 | 1009.3 |
| 20260506141644 | 23 | 151 | 0.0 | 0.0 | 0.00 | 0.00 | 0.00 | 96 | 1009.1 |
| 20260506141142 | 23 | 151 | 0.0 | 0.0 | 0.00 | 0.00 | 0.00 | 96 | 1008.7 |
| 20260506140639 | 23 | 152 | 0.0 | 0.0 | 0.00 | 0.00 | 0.00 | 96 | 1008.7 |
| 20260506140136 | 23 | 151 | 1.6 | 1.6 | 0.00 | 0.00 | 0.00 | 96 | 1008.5 |
| 20260506135633 | 23 | 152 | 1.6 | 3.2 | 0.00 | 0.00 | 0.00 | 96 | 1008.4 |
| 20260506135129 | 22 | 151 | 1.6 | 3.2 | 0.00 | 0.00 | 0.00 | 96 | 1008.1 |
| 20260506134626 | 22 | 152 | 1.6 | 1.6 | 0.00 | 0.00 | 0.00 | 96 | 1008.1 |
| 20260506134121 | 22 | 152 | 4.8 | 4.8 | 0.00 | 0.00 | 0.00 | 96 | 1008.1 |
| 20260506133619 | 22 | 151 | 1.6 | 1.6 | 0.00 | 0.00 | 0.00 | 96 | 1007.8 |
| 20260506133116 | 22 | 150 | 1.6 | 3.2 | 0.00 | 0.00 | 0.00 | 96 | 1007.8 |
| 20260506132613 | 22 | 150 | 3.2 | 3.2 | 0.00 | 0.00 | 0.00 | 97 | 1007.7 |
| 20260506132110 | 22 | 145 | 3.2 | 4.8 | 0.00 | 0.00 | 0.00 | 97 | 1008.0 |
| 20260506131608 | 22 | 152 | 1.6 | 1.6 | 0.00 | 0.00 | 0.00 | 97 | 1007.7 |
| 20260506131104 | 22 | 157 | 1.6 | 1.6 | 0.00 | 0.00 | 0.00 | 97 | 1008.0 |
| 20260506130601 | 22 | 151 | 4.8 | 8.0 | 0.00 | 0.00 | 0.00 | 97 | 1007.6 |
| 20260506130058 | 22 | 154 | 4.8 | 8.0 | 0.00 | 0.00 | 0.00 | 97 | 1007.5 |
| 20260506125557 | 22 | 152 | 4.8 | 4.8 | 0.00 | 0.00 | 0.00 | 97 | 1007.6 |
| 20260506125054 | 22 | 156 | 1.6 | 3.2 | 0.00 | 0.00 | 0.00 | 97 | 1007.5 |
| 20260506124552 | 22 | 150 | 3.2 | 3.2 | 0.00 | 0.00 | 0.00 | 97 | 1007.6 |
| 20260506124049 | 22 | 155 | 3.2 | 3.2 | 0.00 | 0.00 | 0.00 | 97 | 1007.6 |
| 20260506123547 | 22 | 151 | 1.6 | 1.6 | 0.00 | 0.00 | 0.00 | 97 | 1007.6 |
| 20260506123045 | 22 | 151 | 4.8 | 4.8 | 0.00 | 0.00 | 0.00 | 97 | 1007.6 |
| 20260506122541 | 22 | 150 | 1.6 | 1.6 | 0.00 | 0.00 | 0.00 | 97 | 1007.5 |
| 20260506122040 | 22 | 149 | 0.0 | 1.6 | 0.00 | 0.00 | 0.00 | 97 | 1007.8 |
| 20260506121537 | 22 | 149 | 0.0 | 1.6 | 0.00 | 0.00 | 0.00 | 97 | 1007.6 |
| 20260506121033 | 22 | 150 | 0.0 | 0.0 | 0.00 | 0.00 | 0.00 | 97 | 1007.8 |
| 20260506120531 | 22 | 149 | 0.0 | 1.6 | 0.00 | 0.00 | 0.00 | 97 | 1007.4 |
| 20260506120028 | 22 | 150 | 0.0 | 1.6 | 0.00 | 0.00 | 0.00 | 97 | 1007.5 |
| 20260506115526 | 22 | 150 | 0.0 | 1.6 | 0.00 | 0.00 | 0.00 | 97 | 1007.8 |
| 20260506115024 | 22 | 150 | 0.0 | 0.0 | 0.00 | 0.00 | 0.00 | 97 | 1007.5 |
| 20260506114521 | 22 | 152 | 0.0 | 1.6 | 0.00 | 0.00 | 0.00 | 96 | 1007.5 |
| 20260506114020 | 22 | 187 | 3.2 | 4.8 | 0.00 | 0.00 | 0.00 | 96 | 1007.4 |
| 20260506113517 | 22 | 150 | 0.0 | 1.6 | 0.00 | 0.00 | 0.00 | 96 | 1007.4 |
| 20260506113014 | 22 | 150 | 1.6 | 1.6 | 0.00 | 0.00 | 0.00 | 96 | 1007.4 |
| 20260506112511 | 22 | 149 | 1.6 | 1.6 | 0.00 | 0.00 | 0.00 | 96 | 1007.4 |
| 20260506112008 | 22 | 152 | 3.2 | 3.2 | 0.00 | 0.00 | 0.00 | 96 | 1007.5 |
| 20260506111506 | 22 | 150 | 0.0 | 0.0 | 0.00 | 0.00 | 0.00 | 96 | 1007.3 |
| 20260506111003 | 22 | 150 | 1.6 | 1.6 | 0.00 | 0.00 | 0.00 | 96 | 1007.4 |
| 20260506110501 | 22 | 151 | 1.6 | 1.6 | 0.00 | 0.00 | 0.00 | 96 | 1007.4 |
| 20260506105957 | 22 | 150 | 0.0 | 0.0 | 0.00 | 0.00 | 0.00 | 96 | 1007.4 |
| 20260506105453 | 22 | 150 | 1.6 | 1.6 | 0.00 | 0.00 | 0.00 | 96 | 1007.2 |
| 20260506104951 | 22 | 150 | 0.0 | 1.6 | 0.00 | 0.00 | 0.00 | 96 | 1007.2 |
| 20260506104449 | 22 | 150 | 3.2 | 3.2 | 0.00 | 0.00 | 0.00 | 96 | 1007.2 |
| 20260506103947 | 22 | 150 | 1.6 | 1.6 | 0.00 | 0.00 | 0.00 | 96 | 1006.8 |
| 20260506103444 | 22 | 164 | 1.6 | 3.2 | 0.00 | 0.00 | 0.00 | 96 | 1007.2 |
| 20260506102940 | 22 | 152 | 1.6 | 1.6 | 0.00 | 0.00 | 0.00 | 96 | 1007.3 |
| 20260506102439 | 22 | 204 | 6.4 | 9.7 | 0.00 | 0.00 | 0.00 | 96 | 1007.1 |
| 20260506101936 | 22 | 151 | 3.2 | 4.8 | 0.00 | 0.00 | 0.00 | 96 | 1007.3 |
| 20260506101432 | 22 | 168 | 3.2 | 3.2 | 0.00 | 0.00 | 0.00 | 96 | 1007.3 |
| 20260506100929 | 22 | 151 | 1.6 | 1.6 | 0.00 | 0.00 | 0.00 | 96 | 1007.1 |
| 20260506100427 | 22 | 152 | 1.6 | 3.2 | 0.00 | 0.00 | 0.00 | 96 | 1007.2 |
| 20260506095925 | 22 | 157 | 3.2 | 3.2 | 0.00 | 0.00 | 0.00 | 96 | 1007.2 |
| 20260506095424 | 22 | 156 | 3.2 | 3.2 | 0.00 | 0.00 | 0.00 | 96 | 1007.2 |
| 20260506094919 | 22 | 152 | 3.2 | 3.2 | 0.00 | 0.00 | 0.00 | 96 | 1007.2 |
| 20260506094418 | 22 | 156 | 1.6 | 1.6 | 0.00 | 0.00 | 0.00 | 96 | 1007.2 |
| 20260506093915 | 22 | 191 | 3.2 | 3.2 | 0.00 | 0.00 | 0.00 | 96 | 1006.9 |
| 20260506093413 | 22 | 153 | 3.2 | 3.2 | 0.00 | 0.00 | 0.00 | 96 | 1007.2 |
| 20260506092911 | 22 | 155 | 3.2 | 3.2 | 0.00 | 0.00 | 0.00 | 96 | 1006.9 |
| 20260506092409 | 22 | 152 | 1.6 | 1.6 | 0.00 | 0.00 | 0.00 | 96 | 1007.1 |
| 20260506091905 | 22 | 151 | 3.2 | 4.8 | 0.00 | 0.00 | 0.00 | 96 | 1006.8 |
| 20260506091403 | 22 | 195 | 4.8 | 4.8 | 0.00 | 0.00 | 0.00 | 96 | 1006.4 |
| 20260506090900 | 22 | 153 | 4.8 | 8.0 | 0.00 | 0.00 | 0.00 | 96 | 1006.8 |
| 20260506090357 | 22 | 155 | 4.8 | 4.8 | 0.00 | 0.00 | 0.00 | 96 | 1006.7 |
| 20260506085854 | 22 | 151 | 4.8 | 4.8 | 0.00 | 0.00 | 0.00 | 96 | 1006.9 |
| 20260506085350 | 22 | 160 | 3.2 | 4.8 | 0.00 | 0.00 | 0.00 | 96 | 1006.6 |
| 20260506084847 | 22 | 149 | 6.4 | 8.0 | 0.00 | 0.00 | 0.00 | 96 | 1006.7 |
| 20260506084344 | 22 | 160 | 3.2 | 4.8 | 0.00 | 0.00 | 0.00 | 96 | 1006.7 |
| 20260506083840 | 22 | 160 | 4.8 | 4.8 | 0.00 | 0.00 | 0.00 | 96 | 1006.7 |
| 20260506083338 | 22 | 146 | 4.8 | 4.8 | 0.00 | 0.00 | 0.00 | 96 | 1006.6 |
| 20260506082835 | 22 | 153 | 6.4 | 8.0 | 0.00 | 0.00 | 0.00 | 96 | 1006.7 |
| 20260506082331 | 22 | 151 | 3.2 | 3.2 | 0.00 | 0.00 | 0.00 | 96 | 1006.9 |
| 20260506081828 | 22 | 166 | 3.2 | 3.2 | 0.00 | 0.00 | 0.00 | 96 | 1006.9 |
| 20260506081326 | 22 | 150 | 4.8 | 8.0 | 0.00 | 0.00 | 0.00 | 96 | 1007.1 |
| 20260506080823 | 22 | 153 | 4.8 | 4.8 | 0.00 | 0.00 | 0.00 | 96 | 1007.3 |
| 20260506080319 | 22 | 168 | 4.8 | 4.8 | 0.00 | 0.00 | 0.00 | 96 | 1006.8 |
| 20260506073304 | 23 | 144 | 6.4 | 8.0 | 0.00 | 0.00 | 0.00 | 95 | 1007.1 |
| 20260506072800 | 23 | 154 | 4.8 | 4.8 | 0.00 | 0.00 | 0.00 | 95 | 1007.3 |
| 20260506072258 | 23 | 151 | 3.2 | 4.8 | 0.00 | 0.00 | 0.00 | 95 | 1007.2 |
| 20260506071755 | 23 | 157 | 4.8 | 4.8 | 0.00 | 0.00 | 0.00 | 95 | 1007.3 |
| 20260506071254 | 23 | 156 | 4.8 | 8.0 | 0.00 | 0.00 | 0.00 | 95 | 1007.3 |
| 20260506070750 | 23 | 156 | 6.4 | 9.7 | 0.00 | 0.00 | 0.00 | 95 | 1007.5 |
| 20260506070247 | 23 | 145 | 9.7 | 11.3 | 0.00 | 0.00 | 0.00 | 95 | 1007.5 |
| 20260506062224 | 23 | 200 | 4.8 | 4.8 | 0.00 | 0.00 | 0.00 | 96 | 1007.6 |
| 20260506061720 | 23 | 157 | 3.2 | 3.2 | 0.00 | 0.00 | 0.00 | 96 | 1007.8 |
| 20260506061218 | 23 | 168 | 6.4 | 9.7 | 0.00 | 0.00 | 0.00 | 96 | 1007.8 |
| 20260506060716 | 23 | 163 | 3.2 | 3.2 | 0.00 | 0.00 | 0.00 | 96 | 1007.8 |
| 20260506060213 | 23 | 163 | 3.2 | 4.8 | 0.00 | 0.00 | 0.00 | 96 | 1007.8 |
| 20260506051145 | 23 | 173 | 4.8 | 4.8 | 0.00 | 0.00 | 0.00 | 95 | 1007.4 |
| 20260506050643 | 23 | 179 | 4.8 | 4.8 | 0.00 | 0.00 | 0.00 | 95 | 1007.6 |
| 20260506050140 | 23 | 144 | 4.8 | 4.8 | 0.00 | 0.00 | 0.00 | 95 | 1007.5 |
| 20260506045133 | 23 | 158 | 4.8 | 4.8 | 0.00 | 0.00 | 0.00 | 95 | 1007.6 |
| 20260506044631 | 23 | 165 | 8.0 | 11.3 | 0.00 | 0.00 | 0.00 | 95 | 1007.4 |
| 20260506044128 | 23 | 165 | 3.2 | 3.2 | 0.00 | 0.00 | 0.00 | 95 | 1007.5 |
| 20260506043625 | 23 | 170 | 8.0 | 11.3 | 0.00 | 0.00 | 0.00 | 95 | 1007.3 |
| 20260506043123 | 23 | 149 | 4.8 | 8.0 | 0.00 | 0.00 | 0.00 | 94 | 1007.4 |
| 20260506042622 | 23 | 151 | 4.8 | 4.8 | 0.00 | 0.00 | 0.00 | 94 | 1007.6 |
| 20260506042119 | 23 | 152 | 4.8 | 4.8 | 0.00 | 0.00 | 0.00 | 94 | 1007.5 |
| 20260506041618 | 23 | 166 | 4.8 | 4.8 | 0.00 | 0.00 | 0.00 | 94 | 1007.4 |
| 20260506041114 | 23 | 156 | 3.2 | 4.8 | 0.00 | 0.00 | 0.00 | 94 | 1007.5 |
| 20260506040612 | 23 | 153 | 8.0 | 11.3 | 0.00 | 0.00 | 0.00 | 94 | 1007.5 |
| 20260506040108 | 23 | 207 | 8.0 | 11.3 | 0.00 | 0.00 | 0.00 | 94 | 1007.3 |
| 20260506035605 | 23 | 165 | 4.8 | 4.8 | 0.00 | 0.00 | 0.00 | 94 | 1007.3 |
| 20260506035102 | 24 | 152 | 4.8 | 8.0 | 0.00 | 0.00 | 0.00 | 94 | 1007.4 |
| 20260506034559 | 24 | 151 | 4.8 | 4.8 | 0.00 | 0.00 | 0.00 | 94 | 1007.1 |
| 20260506034056 | 24 | 156 | 3.2 | 3.2 | 0.00 | 0.00 | 0.00 | 94 | 1007.2 |
| 20260506033553 | 24 | 152 | 6.4 | 8.0 | 0.00 | 0.00 | 0.00 | 93 | 1006.8 |
| 20260506033050 | 24 | 153 | 4.8 | 9.7 | 0.00 | 0.00 | 0.00 | 93 | 1006.7 |
| 20260506032548 | 24 | 169 | 4.8 | 8.0 | 0.00 | 0.00 | 0.00 | 93 | 1006.5 |
| 20260506032044 | 24 | 157 | 3.2 | 3.2 | 0.00 | 0.00 | 0.00 | 93 | 1006.5 |
| 20260506031542 | 24 | 195 | 4.8 | 8.0 | 0.00 | 0.00 | 0.00 | 93 | 1006.6 |
| 20260506031038 | 24 | 156 | 3.2 | 3.2 | 0.00 | 0.00 | 0.00 | 93 | 1006.5 |
| 20260506030537 | 24 | 160 | 4.8 | 9.7 | 0.00 | 0.00 | 0.00 | 93 | 1006.5 |
| 20260506030034 | 24 | 167 | 6.4 | 9.7 | 0.00 | 0.00 | 0.00 | 92 | 1006.5 |
| 20260506025531 | 24 | 156 | 1.6 | 3.2 | 0.00 | 0.00 | 0.00 | 92 | 1006.4 |
| 20260506025026 | 24 | 152 | 4.8 | 8.0 | 0.00 | 0.00 | 0.00 | 92 | 1006.2 |
| 20260506024524 | 25 | 155 | 1.6 | 3.2 | 0.00 | 0.00 | 0.00 | 91 | 1006.2 |
| 20260506024020 | 25 | 156 | 1.6 | 3.2 | 0.00 | 0.00 | 0.00 | 91 | 1006.1 |
| 20260506023516 | 25 | 155 | 3.2 | 3.2 | 0.00 | 0.00 | 0.00 | 90 | 1005.9 |
| 20260506023014 | 25 | 155 | 3.2 | 3.2 | 0.00 | 0.00 | 0.00 | 89 | 1006.0 |
| 20260506022511 | 25 | 155 | 1.6 | 3.2 | 0.00 | 0.00 | 0.00 | 89 | 1006.0 |
| 20260506022009 | 25 | 167 | 4.8 | 4.8 | 0.00 | 0.00 | 0.00 | 88 | 1006.0 |
| 20260506021506 | 25 | 153 | 3.2 | 4.8 | 0.00 | 0.00 | 0.00 | 88 | 1005.7 |
| 20260506021003 | 25 | 154 | 4.8 | 4.8 | 0.00 | 0.00 | 0.00 | 87 | 1005.8 |
| 20260506020501 | 25 | 157 | 3.2 | 3.2 | 0.00 | 0.00 | 0.00 | 87 | 1005.8 |
| 20260506015957 | 25 | 155 | 1.6 | 1.6 | 0.00 | 0.00 | 0.00 | 86 | 1005.7 |
| 20260506015455 | 25 | 155 | 1.6 | 3.2 | 0.00 | 0.00 | 0.00 | 86 | 1005.6 |
| 20260506014952 | 25 | 154 | 1.6 | 1.6 | 0.00 | 0.00 | 0.00 | 86 | 1005.4 |
| 20260506014449 | 25 | 154 | 1.6 | 1.6 | 0.00 | 0.00 | 0.00 | 86 | 1005.6 |
| 20260506013945 | 26 | 154 | 1.6 | 1.6 | 0.00 | 0.00 | 0.00 | 86 | 1005.3 |
| 20260506013443 | 26 | 154 | 0.0 | 0.0 | 0.00 | 0.00 | 0.00 | 85 | 1005.3 |
| 20260506012939 | 26 | 154 | 1.6 | 1.6 | 0.00 | 0.00 | 0.00 | 85 | 1005.1 |
| 20260506012436 | 26 | 153 | 0.0 | 1.6 | 0.00 | 0.00 | 0.00 | 85 | 1005.2 |
| 20260506011933 | 26 | 153 | 1.6 | 1.6 | 0.00 | 0.00 | 0.00 | 84 | 1005.2 |
| 20260506011430 | 26 | 153 | 1.6 | 1.6 | 0.00 | 0.00 | 0.00 | 83 | 1005.3 |
| 20260506010927 | 26 | 151 | 3.2 | 3.2 | 0.00 | 0.00 | 0.00 | 83 | 1005.2 |